Regional Weather Roundup
Issued by NWS

Home | Current Version | Previous Version | Text Only | Print | Product List | Glossary Off
Versions: 1 2 3 4 5 6 7 8 9 10 11 12 13 14 15 16 17 18 19 20 21 22 23 24 25 26 27 28 29 30 31 32 33 34 35 36 37 38 39 40 41 42 43 44 45 46 47 48 49 50

688
ASUS44 KJAN 211503
RWRMS

MISSISSIPPI HOURLY WEATHER ROUNDUP
NATIONAL WEATHER SERVICE JACKSON MS
1000 AM CDT SUN SEP 21 2014

NOTE: "FAIR: INDICATES FEW OR NO CLOUDS BELOW 12,000 FEET WITH NO
SIGNIFICANT WEATHER AND/OR OBSTRUCTIONS TO VISIBILITY.

MSZ001>002-007>008-010>013-018>021-025>028-034>036-211600-
NORTHWEST MISSISSIPPI

CITY           SKY/WX    TMP DP  RH WIND       PRES   REMARKS
CLARKSDALE     FAIR      84  70  61 W3        30.06S
CLEVELAND      FAIR      83  71  66 W8        30.06R
GREENWOOD      SUNNY     81  68  64 SW6       30.06S
GREENVILLE     SUNNY     83  67  58 SW10      30.06R
GRENADA        FAIR      79  68  69 W5        30.07S
OLIVE BRANCH   MOSUNNY   79  73  83 SW7       30.06R
OXFORD         FAIR      77  66  69 SW7       30.09R
TUNICA         SUNNY     81  70  69 W6        30.06R
$$

MSZ003>006-009-014>017-022>024-029>033-037>039-211600-
NORTHEAST MISSISSIPPI

CITY           SKY/WX    TMP DP  RH WIND       PRES   REMARKS
COLUMBUS AFB   SUNNY     80  66  62 W6        30.07R
CORINTH        FAIR      81  66  61 VRB8      30.05S
GOLDN TRIANGLE SUNNY     81  64  57 SW7       30.08R
STARKVILLE     FAIR      79  64  61 SW3       30.07S
TUPELO         SUNNY     81  66  60 W8        30.06R
$$

MSZ040-058-211600-
CENTRAL MISSISSIPPI

CITY           SKY/WX    TMP DP  RH WIND       PRES   REMARKS
JACKSON INTL   SUNNY     80  67  64 CALM      30.08R
JACKSON HAWKNS SUNNY     81  66  60 CALM      30.08R
MERIDIAN KEY   SUNNY     79  65  62 S6        30.08R
MERIDIAN NAS   SUNNY     80  66  62 SW3       30.08R
RAYMOND        FAIR      81  75  83 CALM      30.07S
VICKSBURG      SUNNY     82  71  69 VRB3      30.07R
$$

MSZ059>079-211600-
SOUTH MISSISSIPPI

CITY           SKY/WX    TMP DP  RH WIND       PRES   REMARKS
BROOKHAVEN     FAIR      79  66  65 CALM      30.09S
COLUMBIA       FAIR      79  68  69 CALM      30.06S
HATTIESBURG    SUNNY     78  68  71 CALM      30.08R
MCCOMB         SUNNY     79  66  64 CALM      30.07R
NATCHEZ        SUNNY     81  72  74 W3        30.08R
PINE BELT      SUNNY     79  66  65 CALM      30.09S
$$

MSZ080>082-211600-
COASTAL MISSISSIPPI

CITY           SKY/WX    TMP DP  RH WIND       PRES   REMARKS
BAY ST LOUIS   SUNNY     81  64  57 NE8       30.04S
BILOXI         SUNNY     81  68  63 E7        30.04R
PASCAGOULA     SUNNY     81  69  67 E6        30.03S
GULFPORT       SUNNY     81  68  64 NE5       30.04R
$$



USA.gov is the U.S. government's official web portal to all federal, state and local government web resources and services.